EW6791 Weather Reports


Display with metric or nautical units.
time (UTC)temp
F
wind
direction
speed
MPH
gust
MPH
rain 1hr
in
rain 24hr
in
rain mn
in
humidity
%
barometer
mb
20260506044509 44 30 12.0 16.0 0.00 0.00 0.00 50 1008.1
20260506043005 44 32 12.0 15.0 0.00 0.00 0.00 51 1008.1
20260506041502 44 32 10.0 16.0 0.00 0.00 0.00 53 1007.8
20260506040058 44 35 12.0 17.0 0.00 0.00 0.00 52 1007.7
20260506034559 44 32 13.0 18.0 0.00 0.00 0.00 51 1007.6
20260506033110 44 33 10.0 14.0 0.00 0.00 0.00 49 1007.5
20260506031558 44 25 7.0 12.0 0.00 0.00 0.00 51 1007.2
20260506030053 43 57 3.0 8.0 0.00 0.00 0.00 49 1007.0
20260506024553 44 51 5.0 11.0 0.00 0.00 0.00 48 1007.0
20260506023051 44 66 6.0 14.0 0.00 0.00 0.00 47 1006.9
20260506021554 44 47 9.0 14.0 0.00 0.00 0.00 49 1006.9
20260506020048 44 37 11.0 20.0 0.00 0.00 0.00 54 1006.8
20260506014552 43 51 11.0 16.0 0.00 0.00 0.00 50 1006.4
20260506013044 43 39 11.0 17.0 0.00 0.00 0.00 56 1006.3
20260506011543 43 32 7.0 17.0 0.00 0.00 0.00 55 1006.0
20260506010040 43 55 6.0 11.0 0.00 0.00 0.00 54 1005.8
20260506004542 43 63 8.0 11.0 0.00 0.00 0.00 56 1005.5
20260506003034 43 41 5.0 13.0 0.00 0.00 0.00 56 1005.4
20260506001538 43 56 6.0 14.0 0.00 0.00 0.00 56 1005.2
20260506000036 43 48 8.0 13.0 0.00 0.00 0.00 57 1004.9
20260505234526 44 48 8.0 12.0 0.00 0.00 0.00 56 1004.7
20260505233023 45 57 9.0 16.0 0.00 0.00 0.00 55 1004.5
20260505231523 47 49 9.0 12.0 0.00 0.00 0.00 55 1004.5
20260505230022 49 56 7.0 11.0 0.00 0.00 0.00 54 1004.4
20260505224534 52 44 1.0 5.0 0.00 0.00 0.00 51 1004.5
20260505223030 51 36 10.0 16.0 0.00 0.00 0.00 54 1004.4
20260505221520 55 8 1.0 4.0 0.00 0.00 0.00 42 1004.4
20260505220033 53 30 4.0 9.0 0.00 0.00 0.00 43 1004.3
20260505214534 54 26 3.0 7.0 0.00 0.00 0.00 42 1004.1
20260505213028 60 285 0.0 10.0 0.00 0.00 0.00 24 1004.1
20260505211517 61 197 1.0 9.0 0.00 0.00 0.00 25 1004.1
20260505210016 61 179 1.0 9.0 0.00 0.00 0.00 27 1004.1
20260505204523 60 200 0.0 7.0 0.00 0.00 0.00 27 1004.2
20260505203013 60 205 1.0 6.0 0.00 0.00 0.00 29 1004.1
20260505201516 59 205 2.0 8.0 0.00 0.00 0.00 31 1004.2
20260505200011 60 171 0.0 4.0 0.00 0.00 0.00 31 1004.1
20260505194510 60 354 3.0 10.0 0.00 0.00 0.00 29 1004.1
20260505193032 60 226 2.0 12.0 0.00 0.00 0.00 33 1004.3
20260505191508 60 226 3.0 8.0 0.00 0.00 0.00 31 1004.3
20260505190016 60 325 2.0 11.0 0.00 0.00 0.00 33 1004.1
20260505184505 60 226 2.0 11.0 0.00 0.00 0.00 32 1004.0
20260505183007 60 316 0.0 8.0 0.00 0.00 0.00 36 1004.0
20260505181502 59 227 2.0 11.0 0.00 0.00 0.00 35 1004.1
20260505180058 57 133 0.0 7.0 0.00 0.00 0.00 37 1003.7
20260505174555 54 333 1.0 4.0 0.00 0.00 0.00 44 1003.7
20260505173053 53 203 1.0 7.0 0.00 0.00 0.00 44 1003.9
20260505171552 53 274 1.0 4.0 0.00 0.00 0.00 42 1004.0
20260505170059 54 51 1.0 7.0 0.00 0.00 0.00 41 1003.9
20260505164551 54 295 1.0 8.0 0.00 0.00 0.00 43 1003.9
20260505163052 53 210 0.0 4.0 0.00 0.00 0.00 43 1004.0
20260505161546 52 313 0.0 4.0 0.00 0.00 0.00 42 1004.2
20260505153044 51 271 0.0 3.0 0.00 0.00 0.00 43 1004.3
20260505151539 50 155 0.0 4.0 0.00 0.00 0.00 45 1004.3
20260505124524 47 327 1.0 5.0 0.00 0.00 0.00 50 1002.4
20260505123039 47 316 1.0 3.0 0.00 0.00 0.00 52 1002.3
20260505121526 47 345 1.0 5.0 0.00 0.00 0.00 51 1002.2
20260505120028 47 328 3.0 5.0 0.00 0.00 0.00 51 1001.9
20260505114520 46 319 2.0 3.0 0.00 0.00 0.00 54 1001.8
20260505113018 46 313 0.0 2.0 0.00 0.00 0.00 54 1001.5
20260505111517 46 325 1.0 6.0 0.00 0.00 0.00 54 1001.1
20260505101503 46 314 2.0 6.0 0.00 0.00 0.00 54 1000.0
20260505100002 46 324 3.0 6.0 0.00 0.00 0.00 55 999.8
20260505094608 46 311 5.0 9.0 0.00 0.00 0.00 55 999.6
20260505093059 46 8 4.0 9.0 0.00 0.00 0.00 56 999.3
20260505091556 46 326 3.0 9.0 0.00 0.00 0.00 58 999.1
20260505090107 46 342 4.0 8.0 0.00 0.00 0.00 59 998.9
20260505084554 46 328 4.0 9.0 0.00 0.00 0.00 60 999.0
20260505083106 46 3 6.0 9.0 0.00 0.00 0.00 59 998.6
20260505081551 46 338 5.0 11.0 0.00 0.00 0.00 59 998.6
20260505080053 46 3 7.0 12.0 0.00 0.00 0.00 58 998.4
20260505074545 46 7 7.0 13.0 0.00 0.00 0.00 59 997.9
20260505073055 46 16 8.0 12.0 0.00 0.00 0.00 59 997.7
20260505071542 46 8 7.0 12.0 0.00 0.00 0.00 59 997.7
20260505070051 46 18 10.0 14.0 0.00 0.00 0.00 62 997.5
20260505064540 46 6 5.0 12.0 0.00 0.00 0.00 61 997.6
20260505063041 46 11 8.0 13.0 0.00 0.00 0.00 63 997.8
20260505061538 46 25 12.0 16.0 0.00 0.00 0.00 62 997.8
20260505060037 46 25 9.0 15.0 0.00 0.00 0.00 62 997.7
20260505054535 45 16 11.0 16.0 0.00 0.00 0.00 65 997.3
20260505053032 46 13 11.0 17.0 0.00 0.00 0.00 64 997.3
20260505051533 46 24 14.0 17.0 0.00 0.00 0.00 62 996.9